Location: Melbourne
(37.8120°S, 144.9677°E)
Time: 02:32:21
(UTC+10:00)

ISS - Visible Passes

Search period start: 21 April 2018 00:00
Search period end: 01 May 2018 00:00
Orbit: 403 x 406 km, 51.6° (Epoch: 20 April)

Date Brightness Start Highest point End Pass type
(mag) Time Alt. Az. Time Alt. Az. Time Alt. Az.
23 Apr -1.6 19:19:57 10° N 19:20:58 16° N 19:20:58 16° N visible
24 Apr -1.7 18:29:05 10° NNE 18:30:41 13° NE 18:31:28 12° ENE visible
24 Apr -0.8 20:03:30 10° WNW 20:04:10 15° WNW 20:04:10 15° WNW visible
25 Apr -3.9 19:11:12 10° NW 19:14:30 69° NE 19:14:31 69° NE visible
26 Apr -2.9 18:19:17 10° NNW 18:22:17 32° NE 18:24:44 14° ESE visible
26 Apr -1.1 19:55:54 10° W 19:57:25 20° WSW 19:57:25 20° WSW visible
27 Apr -2.9 19:03:08 10° WNW 19:06:21 45° SW 19:07:31 31° SSE visible
28 Apr -3.8 18:10:40 10° NW 18:14:00 89° NE 18:17:21 10° SE visible
28 Apr -1.0 19:48:45 10° WSW 19:50:10 15° SW 19:50:10 15° SW visible
29 Apr -1.8 18:55:35 10° W 18:58:19 23° SSW 19:00:04 16° SSE visible
30 Apr -2.5 18:02:41 10° WNW 18:05:49 37° SSW 18:08:58 10° SE visible
30 Apr -0.7 19:42:17 10° SSW 19:42:31 10° SSW 19:42:31 10° SSW visible
